AAL2828 KMIA-KDFW

Flight info

Callsign AAL2828
Flight time 2h 45m
Altitude 36000
Route GLADZ4 BAGGS REMIS Y280 REDFN Q105 HRV PNUTS WHINY4
Aircraft A321/M-SDE3FGHIRWY/LB1

Departure

Time 2026-05-07 23:35
Airport Miami International Airport (KMIA)

Arrival

Time 2026-05-08 02:20
Airport Dallas Fort Worth International Airport (KDFW)
Time Latitude Longitude Altitude Speed Heading
2026-05-07 23:17 25.79912 -80.27137 17 ft 0 kts 206°
2026-05-07 23:19 25.79913 -80.27137 17 ft 0 kts 206°
2026-05-07 23:24 25.79922 -80.27132 16 ft 2 kts 208°
2026-05-07 23:24 25.79936 -80.27123 17 ft 2 kts 214°
2026-05-07 23:24 25.79949 -80.27112 18 ft 2 kts 225°
2026-05-07 23:24 25.79960 -80.27098 18 ft 2 kts 245°
2026-05-07 23:25 25.79964 -80.27081 15 ft 2 kts 284°
2026-05-07 23:25 25.79959 -80.27066 18 ft 1 kts 307°
2026-05-07 23:25 25.79957 -80.27062 18 ft 0 kts 310°
2026-05-07 23:26 25.79957 -80.27063 18 ft 1 kts 309°
2026-05-07 23:27 25.80003 -80.27178 16 ft 11 kts 275°
2026-05-07 23:27 25.79998 -80.27259 16 ft 10 kts 265°
2026-05-07 23:27 25.79992 -80.27353 18 ft 14 kts 267°
2026-05-07 23:28 25.79990 -80.27426 15 ft 14 kts 268°
2026-05-07 23:28 25.80047 -80.27508 15 ft 15 kts 316°
2026-05-07 23:28 25.80063 -80.27667 15 ft 17 kts 267°
2026-05-07 23:28 25.80056 -80.27811 15 ft 20 kts 268°
2026-05-07 23:29 25.80050 -80.27963 14 ft 19 kts 267°
2026-05-07 23:29 25.80046 -80.28059 14 ft 18 kts 267°
2026-05-07 23:29 25.80040 -80.28194 15 ft 17 kts 268°
2026-05-07 23:29 25.80035 -80.28325 15 ft 18 kts 267°
2026-05-07 23:30 25.80029 -80.28472 15 ft 20 kts 268°
2026-05-07 23:30 25.80024 -80.28622 16 ft 19 kts 268°
2026-05-07 23:30 25.80018 -80.28760 17 ft 18 kts 267°
2026-05-07 23:30 25.80010 -80.28925 16 ft 23 kts 268°
2026-05-07 23:31 25.80004 -80.29094 16 ft 21 kts 267°
2026-05-07 23:31 25.79997 -80.29253 16 ft 20 kts 268°
2026-05-07 23:31 25.79990 -80.29424 15 ft 23 kts 268°
2026-05-07 23:31 25.79983 -80.29597 14 ft 22 kts 267°
2026-05-07 23:32 25.79976 -80.29760 14 ft 20 kts 267°
2026-05-07 23:32 25.79970 -80.29898 14 ft 12 kts 267°
2026-05-07 23:32 25.79973 -80.29949 13 ft 0 kts 283°
2026-05-07 23:33 25.79975 -80.29960 13 ft 5 kts 283°
2026-05-07 23:33 25.79994 -80.30035 13 ft 15 kts 286°
2026-05-07 23:33 25.80043 -80.30124 14 ft 11 kts 356°
2026-05-07 23:33 25.80074 -80.30062 13 ft 11 kts 86°
2026-05-07 23:34 25.80084 -80.29831 13 ft 61 kts 87°
2026-05-07 23:34 25.80112 -80.29134 17 ft 117 kts 88°
2026-05-07 23:34 25.80153 -80.28070 16 ft 160 kts 90°
2026-05-07 23:34 25.80206 -80.26824 540 ft 161 kts 89°
2026-05-07 23:35 25.80280 -80.25567 1073 ft 166 kts 90°
2026-05-07 23:35 25.80342 -80.24265 1581 ft 171 kts 91°
2026-05-07 23:35 25.80391 -80.22882 1857 ft 187 kts 90°
2026-05-07 23:35 25.80450 -80.21388 2058 ft 201 kts 90°
2026-05-07 23:36 25.80517 -80.19748 2267 ft 219 kts 89°
2026-05-07 23:36 25.80572 -80.18015 2441 ft 237 kts 88°
2026-05-07 23:36 25.81166 -80.16253 2596 ft 259 kts 47°
2026-05-07 23:36 25.82692 -80.15258 3078 ft 264 kts 11°
2026-05-07 23:37 25.84526 -80.15082 3687 ft 266 kts 357°
2026-05-07 23:37 25.86377 -80.15187 4413 ft 267 kts 353°
2026-05-07 23:37 25.88235 -80.15349 5123 ft 268 kts 353°
2026-05-07 23:37 25.90060 -80.15755 5745 ft 269 kts 337°
2026-05-07 23:38 25.91810 -80.16547 6343 ft 273 kts 338°
2026-05-07 23:38 25.93618 -80.17253 6921 ft 277 kts 340°
2026-05-07 23:38 25.95469 -80.17913 7502 ft 281 kts 340°
2026-05-07 23:38 25.97214 -80.18893 8039 ft 283 kts 321°
2026-05-07 23:39 25.98541 -80.20505 8558 ft 286 kts 300°
2026-05-07 23:39 25.99259 -80.22570 9045 ft 290 kts 279°
2026-05-07 23:39 25.99518 -80.24809 9551 ft 294 kts 276°
2026-05-07 23:39 25.99753 -80.27077 10035 ft 298 kts 273°
2026-05-07 23:40 25.99779 -80.29435 10209 ft 313 kts 269°
2026-05-07 23:40 25.99771 -80.31921 10325 ft 329 kts 269°
2026-05-07 23:40 25.99763 -80.34516 10443 ft 344 kts 269°
2026-05-07 23:40 25.99759 -80.37230 10612 ft 356 kts 270°
2026-05-07 23:41 25.99654 -80.40004 10997 ft 360 kts 262°
2026-05-07 23:41 25.99065 -80.42705 11459 ft 362 kts 250°
2026-05-07 23:41 25.97972 -80.45233 11948 ft 364 kts 238°
2026-05-07 23:41 25.96465 -80.47494 12419 ft 366 kts 232°
2026-05-07 23:42 25.94884 -80.49716 12904 ft 367 kts 232°
2026-05-07 23:42 25.93301 -80.51953 13350 ft 370 kts 232°
2026-05-07 23:42 25.91704 -80.54218 13776 ft 373 kts 232°
2026-05-07 23:42 25.90101 -80.56497 14212 ft 375 kts 232°
2026-05-07 23:43 25.88511 -80.58755 14615 ft 377 kts 233°
2026-05-07 23:43 25.86893 -80.61046 15030 ft 378 kts 233°
2026-05-07 23:43 25.85263 -80.63353 15440 ft 380 kts 233°
2026-05-07 23:43 25.83627 -80.65660 15821 ft 382 kts 233°
2026-05-07 23:44 25.81977 -80.67982 16219 ft 384 kts 233°
2026-05-07 23:44 25.80318 -80.70315 16592 ft 386 kts 233°
2026-05-07 23:44 25.78829 -80.72795 16955 ft 386 kts 243°
2026-05-07 23:44 25.77781 -80.75527 17329 ft 386 kts 254°
2026-05-07 23:45 25.77009 -80.78406 17693 ft 389 kts 255°
2026-05-07 23:45 25.76229 -80.81291 18052 ft 390 kts 255°
2026-05-07 23:45 25.75439 -80.84181 18388 ft 392 kts 255°
2026-05-07 23:45 25.74643 -80.87081 18684 ft 394 kts 255°
2026-05-07 23:46 25.73846 -80.89989 18983 ft 394 kts 255°
2026-05-07 23:46 25.73049 -80.92903 19286 ft 395 kts 255°
2026-05-07 23:46 25.72253 -80.95813 19598 ft 395 kts 255°
2026-05-07 23:46 25.71456 -80.98733 19897 ft 396 kts 255°
2026-05-07 23:47 25.70655 -81.01665 20190 ft 397 kts 255°
2026-05-07 23:47 25.69862 -81.04553 20475 ft 397 kts 255°
2026-05-07 23:47 25.69056 -81.07484 20762 ft 397 kts 255°
2026-05-07 23:47 25.68262 -81.10367 20871 ft 384 kts 255°
2026-05-07 23:48 25.67496 -81.13151 20979 ft 373 kts 255°
2026-05-07 23:48 25.66739 -81.15898 21110 ft 376 kts 255°
2026-05-07 23:48 25.65991 -81.18707 21226 ft 382 kts 258°
2026-05-07 23:48 25.65593 -81.21628 21365 ft 386 kts 268°
2026-05-07 23:49 25.65684 -81.24613 21482 ft 390 kts 278°
2026-05-07 23:49 25.66266 -81.27567 21613 ft 395 kts 288°
2026-05-07 23:49 25.67337 -81.30389 21803 ft 399 kts 296°
2026-05-07 23:49 25.68603 -81.33136 22070 ft 401 kts 296°
2026-05-07 23:50 25.69865 -81.35897 22378 ft 402 kts 295°
2026-05-07 23:50 25.71122 -81.38662 22723 ft 401 kts 295°
2026-05-07 23:50 25.72382 -81.41433 23037 ft 402 kts 295°
2026-05-07 23:50 25.73641 -81.44207 23319 ft 402 kts 295°
2026-05-07 23:51 25.74876 -81.46934 23438 ft 390 kts 295°
2026-05-07 23:51 25.76101 -81.49644 23575 ft 395 kts 295°
2026-05-07 23:51 25.77344 -81.52395 23688 ft 400 kts 295°
2026-05-07 23:51 25.78586 -81.55130 23838 ft 404 kts 295°
2026-05-07 23:52 25.79853 -81.57924 24048 ft 406 kts 295°
2026-05-07 23:52 25.81124 -81.60730 24270 ft 408 kts 295°
2026-05-07 23:52 25.82397 -81.63547 24505 ft 409 kts 295°
2026-05-07 23:52 25.83675 -81.66372 24738 ft 410 kts 295°
2026-05-07 23:53 25.84955 -81.69204 24966 ft 411 kts 295°
2026-05-07 23:53 25.86235 -81.72037 25199 ft 412 kts 295°
2026-05-07 23:53 25.87529 -81.74879 25418 ft 413 kts 297°
2026-05-07 23:53 25.89103 -81.77563 25629 ft 417 kts 306°
2026-05-07 23:54 25.91077 -81.79939 25841 ft 421 kts 315°
2026-05-07 23:54 25.93376 -81.81983 26057 ft 425 kts 320°
2026-05-07 23:54 25.95735 -81.83958 26277 ft 426 kts 320°
2026-05-07 23:54 25.98111 -81.85948 26505 ft 427 kts 320°
2026-05-07 23:55 26.00487 -81.87942 26728 ft 428 kts 320°
2026-05-07 23:55 26.02868 -81.89945 26952 ft 430 kts 320°
2026-05-07 23:55 26.05255 -81.91955 27189 ft 431 kts 320°
2026-05-07 23:55 26.07650 -81.93972 27408 ft 432 kts 320°
2026-05-07 23:56 26.10053 -81.95998 27629 ft 434 kts 320°
2026-05-07 23:56 26.12460 -81.98029 27844 ft 435 kts 320°
2026-05-07 23:56 26.14840 -82.00039 28049 ft 436 kts 320°
2026-05-07 23:56 26.17265 -82.02085 28253 ft 437 kts 320°
2026-05-07 23:57 26.19692 -82.04130 28447 ft 439 kts 320°
2026-05-07 23:57 26.22128 -82.06186 28625 ft 440 kts 320°
2026-05-07 23:57 26.24571 -82.08247 28798 ft 441 kts 320°
2026-05-07 23:57 26.27026 -82.10319 28962 ft 442 kts 320°
2026-05-07 23:58 26.29482 -82.12394 29117 ft 443 kts 320°
2026-05-07 23:58 26.31948 -82.14477 29270 ft 444 kts 320°
2026-05-07 23:58 26.34383 -82.16537 29396 ft 445 kts 320°
2026-05-07 23:58 26.36847 -82.18628 29611 ft 445 kts 319°
2026-05-07 23:59 26.39307 -82.20714 29833 ft 444 kts 319°
2026-05-07 23:59 26.41763 -82.22795 30040 ft 443 kts 319°
2026-05-07 23:59 26.44248 -82.24900 30223 ft 442 kts 319°
2026-05-07 23:59 26.46696 -82.26979 30397 ft 442 kts 319°
2026-05-08 00:00 26.49106 -82.29032 30564 ft 441 kts 319°
2026-05-08 00:00 26.51546 -82.31109 30740 ft 441 kts 319°
2026-05-08 00:00 26.53984 -82.33183 30921 ft 440 kts 319°
2026-05-08 00:00 26.56415 -82.35250 31094 ft 440 kts 319°
2026-05-08 00:01 26.58854 -82.37326 31282 ft 439 kts 319°
2026-05-08 00:01 26.61283 -82.39395 31462 ft 439 kts 319°
2026-05-08 00:01 26.63709 -82.41463 31652 ft 438 kts 319°
2026-05-08 00:01 26.66134 -82.43530 31836 ft 438 kts 319°
2026-05-08 00:02 26.68555 -82.45594 32045 ft 437 kts 319°
2026-05-08 00:02 26.70972 -82.47654 32250 ft 436 kts 319°
2026-05-08 00:02 26.73381 -82.49710 32446 ft 436 kts 319°
2026-05-08 00:02 26.75792 -82.51770 32642 ft 435 kts 319°
2026-05-08 00:03 26.78196 -82.53828 32836 ft 435 kts 319°
2026-05-08 00:03 26.80599 -82.55883 33026 ft 434 kts 319°
2026-05-08 00:03 26.82999 -82.57939 33220 ft 434 kts 318°
2026-05-08 00:03 26.85361 -82.59965 33405 ft 434 kts 318°
2026-05-08 00:04 26.87757 -82.62020 33596 ft 433 kts 318°
2026-05-08 00:04 26.90152 -82.64070 33784 ft 433 kts 318°
2026-05-08 00:04 26.92545 -82.66118 33973 ft 433 kts 318°
2026-05-08 00:04 26.94931 -82.68159 34141 ft 432 kts 318°
2026-05-08 00:05 26.97324 -82.70212 34301 ft 432 kts 318°
2026-05-08 00:05 26.99707 -82.72263 34467 ft 431 kts 318°
2026-05-08 00:05 27.02086 -82.74313 34630 ft 431 kts 318°
2026-05-08 00:05 27.04456 -82.76356 34789 ft 430 kts 318°
2026-05-08 00:06 27.06832 -82.78402 34945 ft 430 kts 318°
2026-05-08 00:06 27.09208 -82.80447 35104 ft 429 kts 317°
2026-05-08 00:06 27.11441 -82.82634 35250 ft 424 kts 309°
2026-05-08 00:06 27.13270 -82.85195 35393 ft 418 kts 299°
2026-05-08 00:07 27.14650 -82.88046 35531 ft 414 kts 290°
2026-05-08 00:07 27.15654 -82.91070 35662 ft 413 kts 288°
2026-05-08 00:07 27.16624 -82.94105 35796 ft 413 kts 288°
2026-05-08 00:07 27.17598 -82.97137 35955 ft 412 kts 288°
2026-05-08 00:08 27.19542 -83.03181 36038 ft 411 kts 288°
2026-05-08 00:08 27.21469 -83.09228 36037 ft 410 kts 288°
2026-05-08 00:09 27.23389 -83.15263 36038 ft 410 kts 288°
2026-05-08 00:09 27.25298 -83.21243 36034 ft 409 kts 288°
2026-05-08 00:10 27.27210 -83.27256 36039 ft 408 kts 287°
2026-05-08 00:10 27.29111 -83.33278 36045 ft 409 kts 287°
2026-05-08 00:11 27.31010 -83.39300 36050 ft 409 kts 287°
2026-05-08 00:11 27.32916 -83.45337 36075 ft 409 kts 287°
2026-05-08 00:12 27.34820 -83.51369 36071 ft 409 kts 287°
2026-05-08 00:12 27.36716 -83.57382 36073 ft 408 kts 287°
2026-05-08 00:13 27.38607 -83.63390 36070 ft 407 kts 287°
2026-05-08 00:13 27.40489 -83.69389 36065 ft 406 kts 287°
2026-05-08 00:14 27.42369 -83.75392 36062 ft 406 kts 287°
2026-05-08 00:14 27.44245 -83.81387 36065 ft 406 kts 287°
2026-05-08 00:15 27.45800 -83.86373 36063 ft 406 kts 287°
2026-05-08 00:15 27.47668 -83.92362 36061 ft 406 kts 287°
2026-05-08 00:16 27.49519 -83.98362 36060 ft 405 kts 287°
2026-05-08 00:16 27.51378 -84.04365 36059 ft 405 kts 287°
2026-05-08 00:17 27.53242 -84.10346 36059 ft 405 kts 287°
2026-05-08 00:17 27.55106 -84.16338 36058 ft 404 kts 287°
2026-05-08 00:18 27.56941 -84.22279 36060 ft 404 kts 287°
2026-05-08 00:18 27.58783 -84.28262 36056 ft 404 kts 287°
2026-05-08 00:19 27.60624 -84.34236 36058 ft 404 kts 287°
2026-05-08 00:19 27.62466 -84.40215 36048 ft 403 kts 287°
2026-05-08 00:20 27.64308 -84.46192 36051 ft 403 kts 286°
2026-05-08 00:20 27.66131 -84.52173 36052 ft 403 kts 286°
2026-05-08 00:21 27.67949 -84.58147 36049 ft 403 kts 286°
2026-05-08 00:21 27.69782 -84.64128 36049 ft 403 kts 286°
2026-05-08 00:22 27.71619 -84.70108 36052 ft 403 kts 286°
2026-05-08 00:22 27.73432 -84.76086 36051 ft 403 kts 286°
2026-05-08 00:23 27.75237 -84.82069 36054 ft 402 kts 286°
2026-05-08 00:23 27.77039 -84.88056 36035 ft 403 kts 286°
2026-05-08 00:24 27.78853 -84.94078 36000 ft 407 kts 286°
2026-05-08 00:24 27.80683 -85.00113 36001 ft 410 kts 286°
2026-05-08 00:25 27.82529 -85.06225 36020 ft 412 kts 286°
2026-05-08 00:25 27.84373 -85.12375 36021 ft 413 kts 286°
2026-05-08 00:26 27.86224 -85.18525 36035 ft 414 kts 286°
2026-05-08 00:26 27.88076 -85.24693 36032 ft 415 kts 286°
2026-05-08 00:27 27.89933 -85.30866 36041 ft 415 kts 286°
2026-05-08 00:27 27.91814 -85.37037 36045 ft 415 kts 286°
2026-05-08 00:28 27.93689 -85.43213 36049 ft 415 kts 286°
2026-05-08 00:28 27.95565 -85.49397 36050 ft 415 kts 286°
2026-05-08 00:29 27.97414 -85.55538 36049 ft 415 kts 286°
2026-05-08 00:29 27.99274 -85.61708 36056 ft 415 kts 286°
2026-05-08 00:30 28.01126 -85.67884 36070 ft 413 kts 286°
2026-05-08 00:30 28.02957 -85.74044 36064 ft 412 kts 286°
2026-05-08 00:31 28.04791 -85.80202 36058 ft 412 kts 286°
2026-05-08 00:31 28.06639 -85.86346 36055 ft 412 kts 286°
2026-05-08 00:32 28.08488 -85.92485 36057 ft 412 kts 286°
2026-05-08 00:32 28.10319 -85.98632 36052 ft 412 kts 286°
2026-05-08 00:33 28.12142 -86.04782 36051 ft 412 kts 286°
2026-05-08 00:33 28.13954 -86.10892 36048 ft 412 kts 286°
2026-05-08 00:34 28.15770 -86.17043 36051 ft 412 kts 286°
2026-05-08 00:34 28.17588 -86.23205 36049 ft 412 kts 286°
2026-05-08 00:35 28.19407 -86.29366 36043 ft 412 kts 286°
2026-05-08 00:35 28.21220 -86.35527 36039 ft 412 kts 286°
2026-05-08 00:36 28.23031 -86.41690 36050 ft 412 kts 285°
2026-05-08 00:36 28.24836 -86.47847 36045 ft 412 kts 285°
2026-05-08 00:37 28.26639 -86.54014 36042 ft 412 kts 285°
2026-05-08 00:38 28.29329 -86.63231 36045 ft 412 kts 285°
2026-05-08 00:38 28.31130 -86.69397 36045 ft 412 kts 285°
2026-05-08 00:39 28.32936 -86.75574 36040 ft 412 kts 285°
2026-05-08 00:39 28.34746 -86.81749 36054 ft 412 kts 285°
2026-05-08 00:40 28.36548 -86.87919 36044 ft 411 kts 285°
2026-05-08 00:40 28.38350 -86.94081 36044 ft 411 kts 285°
2026-05-08 00:41 28.40147 -87.00242 36048 ft 411 kts 285°
2026-05-08 00:41 28.41937 -87.06395 36044 ft 410 kts 285°
2026-05-08 00:42 28.43721 -87.12562 36043 ft 410 kts 285°
2026-05-08 00:42 28.45503 -87.18722 36042 ft 410 kts 285°
2026-05-08 00:43 28.47280 -87.24883 36039 ft 410 kts 285°
2026-05-08 00:43 28.49053 -87.31045 36039 ft 410 kts 285°
2026-05-08 00:44 28.50830 -87.37207 36039 ft 410 kts 285°
2026-05-08 00:44 28.52602 -87.43362 36036 ft 410 kts 285°
2026-05-08 00:45 28.54377 -87.49526 36039 ft 410 kts 285°
2026-05-08 00:45 28.56145 -87.55693 36037 ft 410 kts 285°
2026-05-08 00:46 28.57897 -87.61856 36034 ft 410 kts 285°
2026-05-08 00:46 28.59648 -87.67984 36033 ft 410 kts 285°
2026-05-08 00:47 28.61407 -87.74154 36033 ft 410 kts 284°
2026-05-08 00:47 28.63158 -87.80327 36035 ft 410 kts 284°
2026-05-08 00:48 28.64908 -87.86501 36062 ft 409 kts 284°
2026-05-08 00:48 28.66652 -87.92658 36050 ft 408 kts 284°
2026-05-08 00:49 28.68386 -87.98812 36044 ft 407 kts 284°
2026-05-08 00:49 28.70119 -88.04947 36046 ft 407 kts 284°
2026-05-08 00:50 28.71845 -88.11087 36044 ft 406 kts 284°
2026-05-08 00:50 28.73561 -88.17215 36044 ft 406 kts 284°
2026-05-08 00:51 28.75279 -88.23344 36047 ft 406 kts 284°
2026-05-08 00:51 28.76995 -88.29466 36046 ft 406 kts 284°
2026-05-08 00:52 28.78709 -88.35602 36044 ft 406 kts 284°
2026-05-08 00:52 28.80411 -88.41690 36045 ft 406 kts 284°
2026-05-08 00:53 28.82116 -88.47825 36046 ft 406 kts 284°
2026-05-08 00:53 28.83818 -88.53971 36047 ft 406 kts 284°
2026-05-08 00:54 28.85515 -88.60105 36045 ft 406 kts 284°
2026-05-08 00:54 28.87209 -88.66252 36047 ft 406 kts 284°
2026-05-08 00:55 28.89730 -88.72046 36051 ft 417 kts 302°
2026-05-08 00:55 28.93535 -88.77106 36051 ft 420 kts 304°
2026-05-08 00:56 28.97345 -88.82157 36047 ft 418 kts 304°
2026-05-08 00:56 29.01131 -88.87191 36053 ft 418 kts 304°
2026-05-08 00:57 29.04896 -88.92197 36049 ft 418 kts 304°
2026-05-08 00:57 29.08677 -88.97239 36050 ft 418 kts 304°
2026-05-08 00:58 29.12462 -89.02292 36053 ft 418 kts 304°
2026-05-08 00:58 29.16239 -89.07338 36051 ft 417 kts 304°
2026-05-08 00:59 29.19993 -89.12358 36050 ft 417 kts 304°
2026-05-08 00:59 29.23765 -89.17407 36050 ft 417 kts 304°
2026-05-08 01:00 29.27540 -89.22462 36065 ft 417 kts 303°
2026-05-08 01:00 29.31307 -89.27507 36061 ft 416 kts 303°
2026-05-08 01:01 29.35062 -89.32561 36057 ft 415 kts 303°
2026-05-08 01:01 29.38807 -89.37607 36052 ft 415 kts 303°
2026-05-08 01:02 29.42563 -89.42651 36041 ft 415 kts 303°
2026-05-08 01:02 29.46298 -89.47691 36041 ft 415 kts 303°
2026-05-08 01:03 29.50010 -89.52709 36039 ft 415 kts 303°
2026-05-08 01:03 29.53746 -89.57756 36042 ft 414 kts 303°
2026-05-08 01:04 29.57476 -89.62805 36051 ft 414 kts 303°
2026-05-08 01:04 29.60571 -89.66998 36045 ft 413 kts 302°
2026-05-08 01:05 29.64286 -89.72045 36044 ft 413 kts 302°
2026-05-08 01:05 29.67996 -89.77086 36039 ft 413 kts 302°
2026-05-08 01:06 29.71713 -89.82133 36037 ft 413 kts 302°
2026-05-08 01:06 29.75422 -89.87176 36036 ft 413 kts 302°
2026-05-08 01:07 29.79125 -89.92223 36034 ft 413 kts 302°
2026-05-08 01:07 29.82829 -89.97283 36063 ft 413 kts 302°
2026-05-08 01:08 29.86196 -90.02536 36040 ft 401 kts 293°
2026-05-08 01:08 29.89024 -90.08023 36038 ft 401 kts 294°
2026-05-08 01:09 29.91880 -90.13545 36043 ft 401 kts 294°
2026-05-08 01:09 29.94742 -90.19068 36030 ft 401 kts 294°
2026-05-08 01:10 29.97607 -90.24592 36033 ft 401 kts 294°
2026-05-08 01:10 30.00465 -90.30120 36037 ft 401 kts 294°
2026-05-08 01:11 30.03320 -90.35656 36032 ft 401 kts 294°
2026-05-08 01:11 30.06164 -90.41199 36037 ft 401 kts 293°
2026-05-08 01:12 30.09005 -90.46746 36058 ft 401 kts 294°
2026-05-08 01:12 30.11856 -90.52297 36081 ft 401 kts 294°
2026-05-08 01:13 30.14680 -90.57796 36061 ft 400 kts 293°
2026-05-08 01:13 30.17507 -90.63330 36059 ft 400 kts 293°
2026-05-08 01:14 30.20332 -90.68871 36057 ft 400 kts 293°
2026-05-08 01:14 30.23160 -90.74404 36055 ft 400 kts 293°
2026-05-08 01:15 30.25987 -90.79953 36058 ft 401 kts 293°
2026-05-08 01:15 30.28812 -90.85506 36055 ft 401 kts 293°
2026-05-08 01:16 30.31641 -90.91078 36057 ft 402 kts 293°
2026-05-08 01:16 30.34468 -90.96653 36061 ft 402 kts 293°
2026-05-08 01:17 30.37296 -91.02238 36061 ft 402 kts 293°
2026-05-08 01:17 30.40119 -91.07813 36087 ft 401 kts 293°
2026-05-08 01:18 30.42920 -91.13348 36078 ft 400 kts 293°
2026-05-08 01:18 30.45732 -91.18918 36086 ft 400 kts 292°
2026-05-08 01:19 30.48534 -91.24476 36076 ft 399 kts 292°
2026-05-08 01:19 30.51328 -91.30030 36071 ft 398 kts 292°
2026-05-08 01:20 30.54113 -91.35583 36061 ft 398 kts 292°
2026-05-08 01:20 30.56886 -91.41130 36041 ft 398 kts 292°
2026-05-08 01:21 30.59665 -91.46679 36037 ft 398 kts 292°
2026-05-08 01:21 30.62453 -91.52227 36053 ft 398 kts 292°
2026-05-08 01:22 30.65232 -91.57779 36052 ft 397 kts 292°
2026-05-08 01:22 30.67998 -91.63337 36051 ft 397 kts 292°
2026-05-08 01:23 30.70750 -91.68867 36061 ft 398 kts 292°
2026-05-08 01:23 30.73516 -91.74433 36054 ft 398 kts 292°
2026-05-08 01:24 30.76280 -91.80007 36062 ft 398 kts 292°
2026-05-08 01:24 30.79044 -91.85579 36056 ft 398 kts 292°
2026-05-08 01:25 30.81806 -91.91157 36060 ft 398 kts 292°
2026-05-08 01:25 30.84568 -91.96741 36059 ft 398 kts 292°
2026-05-08 01:26 30.87327 -92.02322 36057 ft 398 kts 292°
2026-05-08 01:26 30.90083 -92.07915 36058 ft 398 kts 292°
2026-05-08 01:27 30.92838 -92.13511 36063 ft 398 kts 292°
2026-05-08 01:27 30.95592 -92.19101 36079 ft 397 kts 292°
2026-05-08 01:28 30.98327 -92.24672 36075 ft 396 kts 292°
2026-05-08 01:28 31.01061 -92.30238 36074 ft 395 kts 292°
2026-05-08 01:29 31.03788 -92.35805 36074 ft 395 kts 291°
2026-05-08 01:29 31.06512 -92.41383 36071 ft 396 kts 291°
2026-05-08 01:30 31.09237 -92.46971 36081 ft 396 kts 291°
2026-05-08 01:30 31.11943 -92.52528 36078 ft 396 kts 291°
2026-05-08 01:31 31.14664 -92.58118 36078 ft 396 kts 291°
2026-05-08 01:31 31.17375 -92.63700 36077 ft 395 kts 291°
2026-05-08 01:32 31.20086 -92.69285 36087 ft 395 kts 291°
2026-05-08 01:32 31.22790 -92.74878 36078 ft 393 kts 291°
2026-05-08 01:33 31.25468 -92.80401 36079 ft 390 kts 291°
2026-05-08 01:33 31.28139 -92.85925 36085 ft 390 kts 291°
2026-05-08 01:34 31.30808 -92.91466 36083 ft 391 kts 291°
2026-05-08 01:34 31.33476 -92.96998 36083 ft 391 kts 291°
2026-05-08 01:35 31.36124 -93.02509 36087 ft 391 kts 291°
2026-05-08 01:35 31.38792 -93.08065 36075 ft 391 kts 291°
2026-05-08 01:36 31.41457 -93.13615 36077 ft 391 kts 291°
2026-05-08 01:36 31.44123 -93.19181 36077 ft 391 kts 291°
2026-05-08 01:37 31.46783 -93.24735 36072 ft 391 kts 291°
2026-05-08 01:37 31.49441 -93.30292 36075 ft 388 kts 291°
2026-05-08 01:38 31.52065 -93.35799 36067 ft 386 kts 291°
2026-05-08 01:38 31.54676 -93.41305 36066 ft 386 kts 291°
2026-05-08 01:39 31.57272 -93.46775 36068 ft 387 kts 291°
2026-05-08 01:39 31.59914 -93.52318 36072 ft 386 kts 290°
2026-05-08 01:40 31.61720 -93.58063 36075 ft 376 kts 280°
2026-05-08 01:40 31.63203 -93.63952 36076 ft 376 kts 280°
2026-05-08 01:41 31.64688 -93.69844 36075 ft 376 kts 280°
2026-05-08 01:41 31.66168 -93.75747 36077 ft 376 kts 280°
2026-05-08 01:42 31.67652 -93.81644 36077 ft 377 kts 280°
2026-05-08 01:42 31.69127 -93.87521 36080 ft 377 kts 280°
2026-05-08 01:43 31.70598 -93.93438 36077 ft 378 kts 280°
2026-05-08 01:43 31.72073 -93.99362 36079 ft 378 kts 280°
2026-05-08 01:44 31.73562 -94.05295 36124 ft 378 kts 280°
2026-05-08 01:44 31.75028 -94.11195 36076 ft 375 kts 280°
2026-05-08 01:45 31.76476 -94.17070 36075 ft 375 kts 280°
2026-05-08 01:45 31.77928 -94.22963 36060 ft 376 kts 280°
2026-05-08 01:46 31.79387 -94.28861 36076 ft 376 kts 280°
2026-05-08 01:46 31.80841 -94.34778 36079 ft 377 kts 280°
2026-05-08 01:47 31.82292 -94.40703 36082 ft 377 kts 280°
2026-05-08 01:47 31.83748 -94.46632 36081 ft 377 kts 280°
2026-05-08 01:48 31.85925 -94.55529 36085 ft 377 kts 280°
2026-05-08 01:48 31.87404 -94.61448 36089 ft 378 kts 280°
2026-05-08 01:49 31.88863 -94.67345 36081 ft 378 kts 279°
2026-05-08 01:49 31.90284 -94.73298 36077 ft 378 kts 279°
2026-05-08 01:50 31.91709 -94.79264 36078 ft 379 kts 279°
2026-05-08 01:50 31.93144 -94.85232 36078 ft 379 kts 279°
2026-05-08 01:51 31.94578 -94.91221 36079 ft 379 kts 279°
2026-05-08 01:51 31.96013 -94.97189 36077 ft 379 kts 279°
2026-05-08 01:52 31.97448 -95.03176 36072 ft 380 kts 279°
2026-05-08 01:52 31.98635 -95.08155 36083 ft 380 kts 279°
2026-05-08 01:53 32.00294 -95.15120 36064 ft 379 kts 279°
2026-05-08 01:53 32.01720 -95.21104 36066 ft 379 kts 279°
2026-05-08 01:54 32.02905 -95.26080 36063 ft 379 kts 279°
2026-05-08 01:54 32.04336 -95.32102 36069 ft 379 kts 279°
2026-05-08 01:55 32.05751 -95.38051 36059 ft 380 kts 278°
2026-05-08 01:55 32.07178 -95.44073 36061 ft 381 kts 278°
2026-05-08 01:56 32.08601 -95.50102 36079 ft 382 kts 278°
2026-05-08 01:56 32.10018 -95.56133 36080 ft 382 kts 278°
2026-05-08 01:57 32.11433 -95.62181 35944 ft 382 kts 278°
2026-05-08 01:57 32.12137 -95.65200 35705 ft 382 kts 278°
2026-05-08 01:57 32.12842 -95.68231 35462 ft 384 kts 278°
2026-05-08 01:58 32.13550 -95.71274 35233 ft 385 kts 279°
2026-05-08 01:58 32.14262 -95.74324 34952 ft 387 kts 279°
2026-05-08 01:58 32.14981 -95.77396 34084 ft 390 kts 279°
2026-05-08 01:58 32.15705 -95.80504 33068 ft 394 kts 279°
2026-05-08 01:59 32.16434 -95.83633 32140 ft 397 kts 279°
2026-05-08 01:59 32.17166 -95.86784 31206 ft 399 kts 279°
2026-05-08 01:59 32.17901 -95.89962 30222 ft 404 kts 280°
2026-05-08 01:59 32.18641 -95.93163 29469 ft 401 kts 280°
2026-05-08 02:00 32.19361 -95.96262 29187 ft 393 kts 280°
2026-05-08 02:00 32.20080 -95.99367 28928 ft 391 kts 280°
2026-05-08 02:00 32.20794 -96.02449 28495 ft 388 kts 280°
2026-05-08 02:00 32.21502 -96.05501 27931 ft 382 kts 280°
2026-05-08 02:01 32.22199 -96.08515 27389 ft 377 kts 281°
2026-05-08 02:01 32.22885 -96.11484 26863 ft 372 kts 281°
2026-05-08 02:01 32.23560 -96.14418 26334 ft 368 kts 281°
2026-05-08 02:01 32.24226 -96.17320 25824 ft 364 kts 281°
2026-05-08 02:02 32.24885 -96.20190 25305 ft 360 kts 282°
2026-05-08 02:02 32.25534 -96.23031 24781 ft 356 kts 282°
2026-05-08 02:02 32.26174 -96.25849 24289 ft 353 kts 282°
2026-05-08 02:02 32.26809 -96.28628 23795 ft 349 kts 283°
2026-05-08 02:03 32.27667 -96.31306 23253 ft 349 kts 292°
2026-05-08 02:03 32.28947 -96.33754 22696 ft 353 kts 302°
2026-05-08 02:03 32.30596 -96.35889 22106 ft 358 kts 309°
2026-05-08 02:03 32.32410 -96.37960 21510 ft 358 kts 309°
2026-05-08 02:04 32.34169 -96.39980 20922 ft 357 kts 309°
2026-05-08 02:04 32.35954 -96.42031 20337 ft 357 kts 310°
2026-05-08 02:04 32.37733 -96.44077 19750 ft 356 kts 310°
2026-05-08 02:04 32.39508 -96.46117 19167 ft 356 kts 310°
2026-05-08 02:05 32.41288 -96.48163 18578 ft 357 kts 310°
2026-05-08 02:05 32.43067 -96.50216 17925 ft 358 kts 310°
2026-05-08 02:05 32.44847 -96.52272 17322 ft 356 kts 311°
2026-05-08 02:05 32.46605 -96.54294 17030 ft 345 kts 310°
2026-05-08 02:06 32.48299 -96.56232 16786 ft 333 kts 310°
2026-05-08 02:06 32.49952 -96.58123 16531 ft 328 kts 310°
2026-05-08 02:06 32.51584 -96.59988 16269 ft 326 kts 310°
2026-05-08 02:06 32.53215 -96.61859 15888 ft 323 kts 310°
2026-05-08 02:07 32.54805 -96.63687 15495 ft 321 kts 311°
2026-05-08 02:07 32.56405 -96.65524 15094 ft 319 kts 311°
2026-05-08 02:07 32.58001 -96.67353 14465 ft 323 kts 311°
2026-05-08 02:07 32.59619 -96.69188 14053 ft 319 kts 312°
2026-05-08 02:08 32.61218 -96.70981 13803 ft 309 kts 312°
2026-05-08 02:08 32.62739 -96.72676 13652 ft 291 kts 312°
2026-05-08 02:08 32.64186 -96.74292 13242 ft 281 kts 311°
2026-05-08 02:08 32.65585 -96.75867 12908 ft 273 kts 311°
2026-05-08 02:09 32.66966 -96.77429 12843 ft 274 kts 311°
2026-05-08 02:09 32.68348 -96.78998 12782 ft 275 kts 311°
2026-05-08 02:09 32.69729 -96.80567 12716 ft 275 kts 311°
2026-05-08 02:09 32.71109 -96.82142 12633 ft 275 kts 311°
2026-05-08 02:10 32.72485 -96.83710 12509 ft 274 kts 311°
2026-05-08 02:10 32.73841 -96.85245 12245 ft 272 kts 311°
2026-05-08 02:10 32.75204 -96.86794 11827 ft 271 kts 311°
2026-05-08 02:10 32.76565 -96.88342 11438 ft 270 kts 311°
2026-05-08 02:11 32.77918 -96.89880 11031 ft 269 kts 313°
2026-05-08 02:11 32.79495 -96.91093 10623 ft 277 kts 334°
2026-05-08 02:11 32.81405 -96.91519 10210 ft 285 kts 355°
2026-05-08 02:11 32.83401 -96.91508 9756 ft 287 kts 356°
2026-05-08 02:12 32.85394 -96.91491 9253 ft 285 kts 356°
2026-05-08 02:12 32.87370 -96.91467 8722 ft 283 kts 356°
2026-05-08 02:12 32.89320 -96.91445 8230 ft 279 kts 356°
2026-05-08 02:12 32.91255 -96.91428 7742 ft 276 kts 357°
2026-05-08 02:13 32.93164 -96.91417 7269 ft 273 kts 357°
2026-05-08 02:13 32.95045 -96.91405 6869 ft 267 kts 357°
2026-05-08 02:13 32.96864 -96.91392 6524 ft 256 kts 357°
2026-05-08 02:13 32.98619 -96.91378 6174 ft 248 kts 357°
2026-05-08 02:14 33.00300 -96.91364 5952 ft 237 kts 358°
2026-05-08 02:14 33.01928 -96.91351 5599 ft 233 kts 359°
2026-05-08 02:14 33.03544 -96.91341 5221 ft 231 kts 358°
2026-05-08 02:14 33.05092 -96.91740 4821 ft 228 kts 334°
2026-05-08 02:15 33.06305 -96.92920 4407 ft 227 kts 306°
2026-05-08 02:15 33.06908 -96.94603 4008 ft 225 kts 277°
2026-05-08 02:15 33.06800 -96.96405 3798 ft 213 kts 251°
2026-05-08 02:15 33.06166 -96.97967 3549 ft 207 kts 239°
2026-05-08 02:16 33.05488 -96.99454 3335 ft 201 kts 240°
2026-05-08 02:16 33.04794 -97.00857 3082 ft 193 kts 230°
2026-05-08 02:16 33.03814 -97.01901 2885 ft 187 kts 210°
2026-05-08 02:16 33.02626 -97.02460 2695 ft 181 kts 189°
2026-05-08 02:17 33.01408 -97.02542 2485 ft 169 kts 179°
2026-05-08 02:17 33.00283 -97.02549 2284 ft 156 kts 179°
2026-05-08 02:17 32.99243 -97.02556 2077 ft 144 kts 179°
2026-05-08 02:17 32.98261 -97.02560 1865 ft 140 kts 179°
2026-05-08 02:18 32.97297 -97.02566 1673 ft 137 kts 179°
2026-05-08 02:18 32.96344 -97.02574 1504 ft 137 kts 179°
2026-05-08 02:18 32.95391 -97.02579 1338 ft 137 kts 178°
2026-05-08 02:18 32.94443 -97.02576 1170 ft 136 kts 179°
2026-05-08 02:19 32.93498 -97.02584 982 ft 136 kts 180°
2026-05-08 02:19 32.92556 -97.02587 793 ft 135 kts 181°
2026-05-08 02:19 32.91619 -97.02597 626 ft 134 kts 179°
2026-05-08 02:19 32.90729 -97.02602 574 ft 116 kts 180°
2026-05-08 02:20 32.90115 -97.02605 573 ft 64 kts 180°
2026-05-08 02:20 32.89751 -97.02609 567 ft 36 kts 185°
2026-05-08 02:20 32.89560 -97.02695 571 ft 26 kts 206°
2026-05-08 02:20 32.89425 -97.02784 569 ft 17 kts 217°
2026-05-08 02:21 32.89395 -97.02890 574 ft 12 kts 269°
2026-05-08 02:21 32.89394 -97.02976 576 ft 11 kts 269°
2026-05-08 02:21 32.89393 -97.03077 576 ft 12 kts 270°
2026-05-08 02:21 32.89394 -97.03178 576 ft 12 kts 270°
2026-05-08 02:22 32.89395 -97.03276 583 ft 12 kts 270°
2026-05-08 02:22 32.89395 -97.03370 586 ft 14 kts 270°
2026-05-08 02:22 32.89396 -97.03492 586 ft 15 kts 271°
2026-05-08 02:22 32.89396 -97.03612 586 ft 14 kts 270°
2026-05-08 02:23 32.89413 -97.03724 587 ft 13 kts 283°
2026-05-08 02:23 32.89421 -97.03827 587 ft 10 kts 270°
2026-05-08 02:23 32.89446 -97.03872 587 ft 5 kts 338°
2026-05-08 02:23 32.89457 -97.03875 587 ft 3 kts 343°
2026-05-08 02:24 32.89459 -97.03876 587 ft 0 kts 344°
2026-05-08 02:24 32.89463 -97.03877 587 ft 0 kts 344°